Simultaneous Nadir Overpasses (SNOs) Predictions

Prediction of SNOs between NOAA-19 and NPP Satellite Orbit:

Table of predicted SNOs for the next 14.0 days since TLE Epoch: 6/2/2017
Index Date (NOAA-19) Time (NOAA-19) Lat,Lon (NOAA-19) SZA (NOAA-19 ) Date (NPP) Time (NPP) Lat,Lon (NPP) SZA (NPP ) Distance(km) Time Diff (sec)
1 06/06/2017 09:01:10 80.83, -5.66 61.60 06/06/2017 09:02:21 80.83, -5.55 61.55 2.00 71
2 06/06/2017 09:52:14 -80.83, 161.52 118.40 06/06/2017 09:53:06 -80.84, 161.61 118.43 1.76 52
3 06/06/2017 10:43:11 80.84, -30.95 61.57 06/06/2017 10:43:51 80.83, -30.96 61.55 0.79 40
4 06/06/2017 11:34:15 -80.84, 136.23 118.43 06/06/2017 11:34:36 -80.84, 136.20 118.44 0.64 21
5 06/06/2017 12:25:12 80.84, -56.23 61.54 06/06/2017 12:25:21 80.83, -56.37 61.55 2.81 9
6 06/06/2017 13:16:16 -80.84, 110.94 118.46 06/06/2017 13:16:06 -80.84, 110.79 118.44 2.73 10
7 06/06/2017 14:07:14 80.84, -81.88 61.55 06/06/2017 14:06:51 80.84, -81.79 61.55 1.73 23
8 06/06/2017 14:58:18 -80.84, 85.29 118.45 06/06/2017 14:57:36 -80.84, 85.38 118.44 1.69 42
9 06/06/2017 15:49:15 80.85,-107.16 61.52 06/06/2017 15:48:21 80.84,-107.20 61.55 1.10 54




NCC Satellite Simultaneous Nadir Overpasses (SNOs) Prediction Service
